sat.trackr.live / text

‹ back to catalog

QIANFAN-116

NORAD 68643 · 2026-075H

PAYLOAD ACTIVE UNKNOWN

§ Identity

Operator
Country
PRC
Launch date
2026-04-07
Launch site
WSC
Launch vehicle
Mass (kg)
RCS (m²)

External: N2YO · Heavens-Above · Gunter

§ Orbital elements

Epoch: 2026-05-24T19:28:54.273792Z

Period
105.30 min
Inclination
88.9881°
Eccentricity
0.0010910
Mean motion
13.67542554 rev/d
Perigee alt
1,000.3 km
Apogee alt
1,016.5 km
Semi-major
7,386.5 km
B*
3.9954e-5
RAAN
323.4019°
Arg perigee
67.6999°
Mean anomaly
292.5317°
Rev number
664

§ Raw data

QIANFAN-1161 68643U 26075H   26144.81173928  .00000046  00000+0  39954-4 0  99962 68643  88.9881 323.4019 0010910  67.6999 292.5317 13.67542554  6647

JSON: /api/v1/satellites/68643 · /tle

For live sub-satellite position, see the globe view (requires WebGL).

§ Visibility from observer

Set your observer location to see the next 7 days of passes ≥ 10°. The values pass through the URL so the page stays shareable.

No JS? Fill the form by hand. The geolocation button needs JavaScript.